Regional Weather Roundup
Issued by NWS

Home | Current Version | Previous Version | Graphics & Text | Print | Product List | Glossary On
Versions: 1 2 3 4 5 6 7 8 9 10 11 12 13 14 15 16 17 18 19 20 21 22 23 24 25 26 27 28 29 30 31 32 33 34 35 36 37 38 39 40 41 42 43 44 45 46 47 48 49 50
000
ASUS45 KABQ 040010
RWRNM
WEATHER ROUNDUP FOR NEW MEXICO
NATIONAL WEATHER SERVICE ALBUQUERQUE NM
500 PM MST TUE MAR 03 2015

NOTE: "FAIR" MEANS FEW OR NO CLOUDS BELOW 12,000 FEET AGL WITH NO
       SIGNIFICANT WEATHER OR OBSTRUCTIONS TO VISION.

      THIS PRODUCT IS RELEASED AS TWO VERSIONS.  ONE VERSION NEAR
      THE TOP OF THE HOUR CONTAINING PRELIMINARY DATA FROM ALBUQUERQUE
      AND OTHER STATIONS.  A FINAL VERSION WITH ADDITIONAL DATA IS
      ISSUED ABOUT 10 MINUTES AFTER THE HOUR.

NMZ501-503-504-510>518-040100-
NORTHWEST PLATEAU/NORTHCENTRAL MOUNTAINS

CITY           SKY/WX    TMP DP  RH WIND       PRES   REMARKS
FARMINGTON     PTSUNNY   42  30  62 W6        29.80R
6HR MIN TEMP:  38; 6HR MAX TEMP:  47;

LOS ALAMOS     SUNNY     43  16  33 W9G22     29.79S
SANTA FE       SUNNY     47  21  35 SW3       29.76F
6HR MIN TEMP:  41; 6HR MAX TEMP:  49;

TAOS           MOSUNNY   39  18  41 W14       29.79R WCI  31
ANGEL FIRE     FAIR      33  19  56 W23       29.77S WCI  21

$$
NMZ402-403-502-505>509-040100-
WESTCENTRAL MOUNTAINS/SOUTHWEST MOUNTAINS

CITY           SKY/WX    TMP DP  RH WIND       PRES   REMARKS
GALLUP         CLOUDY    40  23  50 SW17      29.82S WCI  31
6HR MIN TEMP:  37; 6HR MAX TEMP:  44;

GRANTS         SUNNY     45  17  32 W15G24    29.83S
SILVER CITY    SUNNY     55  27  33 W12G21    29.84S

$$
NMZ407-409-411-412-040100-
SOUTHERN DESERTS

CITY           SKY/WX    TMP DP  RH WIND       PRES   REMARKS
LORDSBURG      FAIR      59  30  33 W13G18    29.80S
DEMING         SUNNY     59  32  36 SW21G32   29.80F
6HR MIN TEMP:  51; 6HR MAX TEMP:  60; 6HR PCP: TRACE;

LAS CRUCES     MOSUNNY   58  40  52 SW15G22   29.84S
HOLLOMAN AFB   MOSUNNY   58  40  50 W13       29.80F
ALAMOGORDO     PTSUNNY   57  39  51 S9G16     29.83F
T OR C         SUNNY     61  14  16 SW18G30   29.76S
6HR MIN TEMP:  49; 6HR MAX TEMP:  63;


$$
NMZ519>523-040100-
CENTRAL VALLEYS/CENTRAL HIGHLANDS

CITY           SKY/WX    TMP DP  RH WIND       PRES   REMARKS
ALBUQUERQUE    MOSUNNY   56  27  32 NW9       29.74F
6HR MIN TEMP:  45; 6HR MAX TEMP:  56;

DOUBLE EAGLE   MOSUNNY   54  19  26 W16       29.76F
MORIARTY ARPT  LGT RAIN  49  31  49 W8        29.76F
6HR MIN TEMP:  44; 6HR MAX TEMP:  53;

CLINES CORNERS MOSUNNY   47  28  47 W15       29.75S
6HR MIN TEMP:  40; 6HR MAX TEMP:  51;

BELEN          FAIR      60   6  12 SW23G36   29.72S
6HR MIN TEMP:  47; 6HR MAX TEMP:  62;

SOCORRO          N/A     63   9  12 SW18G30   29.72S
6HR MIN TEMP:  49; 6HR MAX TEMP:  65;


$$
NMZ524>526-539-540-040100-
SOUTHCENTRAL MOUNTAINS

CITY           SKY/WX    TMP DP  RH WIND       PRES   REMARKS
RUIDOSO        MOSUNNY   45  32  61 SW24G31   29.84F

$$
NMZ527>531-040100-
NORTHEAST HIGHLANDS/NORTHEAST PLAINS

CITY           SKY/WX    TMP DP  RH WIND       PRES   REMARKS
LAS VEGAS      SUNNY     45  23  42 W18       29.75F
6HR MIN TEMP:  42; 6HR MAX TEMP:  47;

RATON          CLEAR     49  13  23 SW26G36   29.69R
6HR MIN TEMP:  46; 6HR MAX TEMP:  53;

CLAYTON        CLOUDY    36  31  82 NE18      29.78R WCI  26
6HR MIN TEMP:  36; 6HR MAX TEMP:  51;


$$
NMZ532>537-040100-
EASTCENTRAL PLAINS

CITY           SKY/WX    TMP DP  RH WIND       PRES   REMARKS
TUCUMCARI      CLEAR     58  42  55 SW12      29.72S
6HR MIN TEMP:  53; 6HR MAX TEMP:  60;

CANNON AFB     MOCLDY    56  44  62 SW10      29.77F
6HR MIN TEMP:  48; 6HR MAX TEMP:  58; 6HR PCP: TRACE;

CLOVIS AIRPORT CLOUDY    55  43  62 S12       29.78S

$$
NMZ028-029-538-040100-
SOUTHEAST PLAINS

CITY           SKY/WX    TMP DP  RH WIND       PRES   REMARKS
ROSWELL        PTSUNNY   59  45  59 S8        29.79R
6HR MIN TEMP:  43; 6HR MAX TEMP:  61; 6HR PCP: TRACE;

ARTESIA        MOSUNNY   63  46  55 SW15      29.80S
CARLSBAD       PTSUNNY   66  44  45 W18G24    29.79R
6HR MIN TEMP:  47; 6HR MAX TEMP:  67;

HOBBS          LGT RAIN  59  46  63 W3        29.83R


$$


USA.gov is the U.S. government's official web portal to all federal, state and local government web resources and services.